| time (UTC) | temp C | wind direction | speed KPH | gust KPH | rain 1hr cm | rain 24hr cm | rain mn cm | humidity % | barometer mb |
| 20260505230534 | 2 | 338 | 6.4 | 11.3 | 0.00 | 0.00 | 0.00 | 59 | 1013.0 |
| 20260505230038 | 2 | 2 | 3.2 | 9.7 | 0.00 | 0.00 | 0.00 | 59 | 1013.1 |
| 20260505225535 | 2 | 51 | 1.6 | 8.0 | 0.00 | 0.00 | 0.00 | 58 | 1013.0 |
| 20260505225036 | 2 | 349 | 1.6 | 9.7 | 0.00 | 0.00 | 0.00 | 56 | 1013.1 |
| 20260505224546 | 3 | 345 | 6.4 | 12.9 | 0.00 | 0.00 | 0.00 | 55 | 1013.1 |
| 20260505224035 | 3 | 26 | 6.4 | 12.9 | 0.00 | 0.00 | 0.00 | 54 | 1013.0 |
| 20260505223535 | 3 | 345 | 8.0 | 12.9 | 0.00 | 0.00 | 0.00 | 54 | 1013.1 |
| 20260505223051 | 2 | 338 | 4.8 | 9.7 | 0.00 | 0.00 | 0.00 | 55 | 1013.1 |
| 20260505222535 | 3 | 0 | 0.0 | 8.0 | 0.00 | 0.00 | 0.00 | 56 | 1013.2 |
| 20260505222036 | 3 | 0 | 1.6 | 9.7 | 0.00 | 0.00 | 0.00 | 54 | 1013.0 |
| 20260505221549 | 3 | 345 | 4.8 | 9.7 | 0.00 | 0.00 | 0.00 | 53 | 1013.0 |
| 20260505221034 | 3 | 329 | 6.4 | 9.7 | 0.00 | 0.00 | 0.00 | 53 | 1013.1 |
| 20260505220539 | 2 | 4 | 4.8 | 8.0 | 0.00 | 0.00 | 0.00 | 55 | 1013.1 |
| 20260505220048 | 2 | 345 | 0.0 | 4.8 | 0.00 | 0.00 | 0.00 | 55 | 1013.2 |
| 20260505215535 | 3 | 0 | 1.6 | 4.8 | 0.00 | 0.00 | 0.00 | 54 | 1013.2 |
| 20260505215034 | 3 | 14 | 0.0 | 6.4 | 0.00 | 0.00 | 0.00 | 54 | 1013.1 |
| 20260505214550 | 3 | 0 | 0.0 | 6.4 | 0.00 | 0.00 | 0.00 | 53 | 1013.0 |
| 20260505214035 | 3 | 51 | 1.6 | 6.4 | 0.00 | 0.00 | 0.00 | 53 | 1013.0 |
| 20260505213535 | 3 | 44 | 1.6 | 6.4 | 0.00 | 0.00 | 0.00 | 52 | 1013.0 |
| 20260505213044 | 3 | 0 | 0.0 | 6.4 | 0.00 | 0.00 | 0.00 | 52 | 1013.0 |
| 20260505212534 | 4 | 6 | 0.0 | 8.0 | 0.00 | 0.00 | 0.00 | 51 | 1013.0 |
| 20260505212033 | 4 | 23 | 3.2 | 9.7 | 0.00 | 0.00 | 0.00 | 49 | 1013.0 |
| 20260505211539 | 4 | 333 | 6.4 | 9.7 | 0.00 | 0.00 | 0.00 | 49 | 1012.9 |
| 20260505211033 | 4 | 345 | 8.0 | 9.7 | 0.00 | 0.00 | 0.00 | 50 | 1012.9 |
| 20260505210532 | 4 | 12 | 1.6 | 6.4 | 0.00 | 0.00 | 0.00 | 50 | 1012.9 |
| 20260505210039 | 5 | 33 | 0.0 | 9.7 | 0.00 | 0.00 | 0.00 | 50 | 1012.9 |
| 20260505205533 | 5 | 0 | 1.6 | 17.7 | 0.00 | 0.00 | 0.00 | 47 | 1012.7 |
| 20260505205033 | 5 | 332 | 4.8 | 17.7 | 0.00 | 0.00 | 0.00 | 46 | 1012.6 |
| 20260505204539 | 6 | 326 | 11.3 | 17.7 | 0.00 | 0.00 | 0.00 | 44 | 1012.6 |
| 20260505204032 | 5 | 18 | 8.0 | 14.5 | 0.00 | 0.00 | 0.00 | 46 | 1012.6 |
| 20260505203532 | 5 | 345 | 1.6 | 6.4 | 0.00 | 0.00 | 0.00 | 51 | 1012.7 |
| 20260505203038 | 5 | 0 | 0.0 | 1.6 | 0.00 | 0.00 | 0.00 | 53 | 1012.5 |
| 20260505202537 | 5 | 0 | 0.0 | 9.7 | 0.00 | 0.00 | 0.00 | 53 | 1012.5 |
| 20260505202035 | 5 | 70 | 0.0 | 9.7 | 0.00 | 0.00 | 0.00 | 53 | 1012.5 |
| 20260505201538 | 5 | 9 | 0.0 | 4.8 | 0.00 | 0.00 | 0.00 | 58 | 1012.4 |
| 20260505201032 | 5 | 34 | 0.0 | 4.8 | 0.00 | 0.00 | 0.00 | 58 | 1012.3 |
| 20260505200532 | 5 | 0 | 0.0 | 4.8 | 0.00 | 0.00 | 0.00 | 63 | 1012.3 |
| 20260505200048 | 5 | 41 | 1.6 | 4.8 | 0.00 | 0.00 | 0.00 | 66 | 1012.3 |
| 20260505195535 | 5 | 293 | 1.6 | 4.8 | 0.00 | 0.00 | 0.00 | 68 | 1012.1 |
| 20260505195033 | 5 | 326 | 1.6 | 6.4 | 0.00 | 0.00 | 0.00 | 69 | 1012.1 |
| 20260505194540 | 6 | 314 | 0.0 | 6.4 | 0.00 | 0.00 | 0.00 | 68 | 1012.2 |
| 20260505194033 | 6 | 345 | 0.0 | 4.8 | 0.00 | 0.00 | 0.00 | 67 | 1012.1 |
| 20260505193532 | 6 | 0 | 0.0 | 1.6 | 0.00 | 0.00 | 0.00 | 67 | 1012.0 |
| 20260505193038 | 6 | 0 | 0.0 | 3.2 | 0.00 | 0.00 | 0.00 | 66 | 1012.0 |
| 20260505192533 | 6 | 250 | 0.0 | 3.2 | 0.00 | 0.00 | 0.00 | 66 | 1012.0 |
| 20260505192032 | 6 | 248 | 1.6 | 3.2 | 0.00 | 0.00 | 0.00 | 65 | 1011.9 |
| 20260505191540 | 7 | 176 | 0.0 | 3.2 | 0.00 | 0.00 | 0.00 | 63 | 1011.8 |
| 20260505191035 | 7 | 0 | 0.0 | 3.2 | 0.00 | 0.00 | 0.00 | 62 | 1011.8 |
| 20260505190532 | 7 | 136 | 0.0 | 4.8 | 0.00 | 0.00 | 0.00 | 62 | 1011.7 |
| 20260505190040 | 7 | 209 | 1.6 | 4.8 | 0.00 | 0.00 | 0.00 | 62 | 1011.7 |
| 20260505185532 | 7 | 148 | 1.6 | 4.8 | 0.00 | 0.00 | 0.00 | 61 | 1011.6 |
| 20260505185035 | 7 | 137 | 0.0 | 4.8 | 0.00 | 0.00 | 0.00 | 60 | 1011.7 |
| 20260505184537 | 7 | 0 | 1.6 | 4.8 | 0.00 | 0.00 | 0.00 | 60 | 1011.7 |
| 20260505184032 | 7 | 168 | 1.6 | 6.4 | 0.00 | 0.00 | 0.00 | 60 | 1011.5 |
| 20260505183532 | 7 | 145 | 1.6 | 6.4 | 0.00 | 0.00 | 0.00 | 59 | 1011.5 |
| 20260505183044 | 8 | 0 | 1.6 | 9.7 | 0.00 | 0.00 | 0.00 | 59 | 1011.6 |
| 20260505182534 | 8 | 155 | 4.8 | 9.7 | 0.00 | 0.00 | 0.00 | 59 | 1011.5 |
| 20260505182037 | 8 | 195 | 3.2 | 9.7 | 0.00 | 0.00 | 0.00 | 58 | 1011.5 |
| 20260505181545 | 8 | 174 | 3.2 | 11.3 | 0.00 | 0.00 | 0.00 | 58 | 1011.5 |
| 20260505181035 | 8 | 155 | 6.4 | 11.3 | 0.00 | 0.00 | 0.00 | 57 | 1011.4 |
| 20260505180538 | 8 | 175 | 6.4 | 12.9 | 0.00 | 0.00 | 0.00 | 56 | 1011.4 |
| 20260505180051 | 8 | 221 | 3.2 | 12.9 | 0.00 | 0.00 | 0.00 | 55 | 1011.4 |
| 20260505175534 | 8 | 205 | 6.4 | 17.7 | 0.00 | 0.00 | 0.00 | 55 | 1011.2 |
| 20260505175035 | 8 | 237 | 8.0 | 17.7 | 0.00 | 0.00 | 0.00 | 54 | 1011.4 |
| 20260505174553 | 8 | 233 | 9.7 | 17.7 | 0.00 | 0.00 | 0.00 | 54 | 1011.4 |
| 20260505174035 | 8 | 205 | 6.4 | 12.9 | 0.00 | 0.00 | 0.00 | 52 | 1011.4 |
| 20260505173535 | 8 | 269 | 4.8 | 12.9 | 0.00 | 0.00 | 0.00 | 53 | 1011.3 |
| 20260505173046 | 8 | 215 | 8.0 | 16.1 | 0.00 | 0.00 | 0.00 | 52 | 1011.3 |
| 20260505172535 | 8 | 202 | 9.7 | 20.9 | 0.00 | 0.00 | 0.00 | 50 | 1011.3 |
| 20260505172035 | 8 | 204 | 9.7 | 20.9 | 0.00 | 0.00 | 0.00 | 50 | 1011.4 |
| 20260505171545 | 8 | 229 | 14.5 | 22.5 | 0.00 | 0.00 | 0.00 | 50 | 1011.3 |
| 20260505171036 | 8 | 223 | 14.5 | 22.5 | 0.00 | 0.00 | 0.00 | 49 | 1011.1 |
| 20260505170535 | 8 | 219 | 14.5 | 22.5 | 0.00 | 0.00 | 0.00 | 47 | 1011.0 |
| 20260505170043 | 8 | 221 | 14.5 | 22.5 | 0.00 | 0.00 | 0.00 | 48 | 1011.1 |
| 20260505165534 | 8 | 166 | 14.5 | 22.5 | 0.00 | 0.00 | 0.00 | 47 | 1011.0 |
| 20260505165035 | 8 | 227 | 11.3 | 19.3 | 0.00 | 0.00 | 0.00 | 47 | 1011.0 |
| 20260505164542 | 9 | 262 | 12.9 | 24.1 | 0.00 | 0.00 | 0.00 | 46 | 1011.0 |
| 20260505164034 | 9 | 222 | 16.1 | 24.1 | 0.00 | 0.00 | 0.00 | 46 | 1011.0 |
| 20260505163535 | 8 | 217 | 14.5 | 24.1 | 0.00 | 0.00 | 0.00 | 45 | 1011.1 |
| 20260505163050 | 9 | 245 | 16.1 | 24.1 | 0.00 | 0.00 | 0.00 | 45 | 1010.9 |
| 20260505162535 | 9 | 220 | 16.1 | 24.1 | 0.00 | 0.00 | 0.00 | 44 | 1010.9 |
| 20260505162035 | 9 | 210 | 16.1 | 22.5 | 0.00 | 0.00 | 0.00 | 42 | 1010.9 |
| 20260505161546 | 9 | 231 | 14.5 | 24.1 | 0.00 | 0.00 | 0.00 | 44 | 1010.9 |
| 20260505161035 | 10 | 218 | 12.9 | 24.1 | 0.00 | 0.00 | 0.00 | 42 | 1010.8 |
| 20260505160535 | 10 | 224 | 16.1 | 24.1 | 0.00 | 0.00 | 0.00 | 42 | 1011.0 |
| 20260505153041 | 10 | 329 | 8.0 | 20.9 | 0.00 | 0.00 | 0.00 | 25 | 1010.8 |
| 20260505152533 | 10 | 347 | 9.7 | 20.9 | 0.00 | 0.00 | 0.00 | 24 | 1010.8 |
| 20260505152031 | 10 | 318 | 9.7 | 19.3 | 0.00 | 0.00 | 0.00 | 26 | 1010.9 |
| 20260505151540 | 10 | 319 | 11.3 | 19.3 | 0.00 | 0.00 | 0.00 | 25 | 1010.7 |
| 20260505151035 | 10 | 15 | 9.7 | 27.4 | 0.00 | 0.00 | 0.00 | 27 | 1010.8 |
| 20260505150533 | 10 | 273 | 8.0 | 27.4 | 0.00 | 0.00 | 0.00 | 26 | 1010.8 |
| 20260505140532 | 11 | 356 | 11.3 | 19.3 | 0.00 | 0.00 | 0.00 | 23 | 1010.9 |
| 20260505130107 | 10 | 70 | 4.8 | 24.1 | 0.00 | 0.00 | 0.00 | 24 | 1011.0 |
| 20260505125032 | 10 | 20 | 8.0 | 22.5 | 0.00 | 0.00 | 0.00 | 24 | 1011.2 |
| 20260505124551 | 10 | 244 | 9.7 | 22.5 | 0.00 | 0.00 | 0.00 | 22 | 1011.0 |
| 20260505124032 | 11 | 314 | 11.3 | 19.3 | 0.00 | 0.00 | 0.00 | 23 | 1011.1 |
| 20260505123534 | 11 | 310 | 9.7 | 30.6 | 0.00 | 0.00 | 0.00 | 25 | 1011.2 |
| 20260505123045 | 11 | 283 | 6.4 | 30.6 | 0.00 | 0.00 | 0.00 | 24 | 1011.0 |
| 20260505122532 | 10 | 243 | 11.3 | 30.6 | 0.00 | 0.00 | 0.00 | 23 | 1010.9 |
| 20260505122032 | 10 | 297 | 11.3 | 24.1 | 0.00 | 0.00 | 0.00 | 24 | 1011.0 |
| 20260505121551 | 10 | 344 | 12.9 | 20.9 | 0.00 | 0.00 | 0.00 | 22 | 1010.9 |
| 20260505121035 | 10 | 60 | 6.4 | 19.3 | 0.00 | 0.00 | 0.00 | 25 | 1010.9 |
| 20260505120535 | 11 | 243 | 8.0 | 19.3 | 0.00 | 0.00 | 0.00 | 22 | 1010.9 |
| 20260505120038 | 10 | 242 | 3.2 | 8.0 | 0.00 | 0.00 | 0.00 | 24 | 1011.0 |
| 20260505115534 | 10 | 150 | 1.6 | 22.5 | 0.00 | 0.00 | 0.00 | 25 | 1010.9 |
| 20260505115036 | 10 | 94 | 4.8 | 22.5 | 0.00 | 0.00 | 0.00 | 23 | 1010.9 |
| 20260505114547 | 10 | 340 | 12.9 | 22.5 | 0.00 | 0.00 | 0.00 | 23 | 1011.1 |
| 20260505114035 | 10 | 343 | 9.7 | 19.3 | 0.00 | 0.00 | 0.00 | 26 | 1010.9 |
| 20260505113535 | 10 | 334 | 6.4 | 17.7 | 0.00 | 0.00 | 0.00 | 23 | 1011.0 |
| 20260505113049 | 10 | 248 | 8.0 | 24.1 | 0.00 | 0.00 | 0.00 | 24 | 1011.1 |
| 20260505112538 | 10 | 253 | 14.5 | 24.1 | 0.00 | 0.00 | 0.00 | 24 | 1011.0 |
| 20260505112035 | 10 | 315 | 9.7 | 17.7 | 0.00 | 0.00 | 0.00 | 26 | 1011.2 |
| 20260505111541 | 10 | 298 | 8.0 | 17.7 | 0.00 | 0.00 | 0.00 | 26 | 1011.2 |
| 20260505111034 | 10 | 269 | 9.7 | 17.7 | 0.00 | 0.00 | 0.00 | 28 | 1011.1 |
| 20260505110535 | 10 | 283 | 6.4 | 19.3 | 0.00 | 0.00 | 0.00 | 34 | 1011.1 |
| 20260505102034 | 9 | 329 | 14.5 | 22.5 | 0.00 | 0.00 | 0.00 | 29 | 1011.4 |
| 20260505101547 | 9 | 155 | 8.0 | 19.3 | 0.00 | 0.00 | 0.00 | 30 | 1011.2 |
| 20260505101035 | 9 | 299 | 9.7 | 24.1 | 0.00 | 0.00 | 0.00 | 32 | 1011.3 |
| 20260505100535 | 8 | 332 | 14.5 | 24.1 | 0.00 | 0.00 | 0.00 | 31 | 1011.2 |
| 20260505100040 | 8 | 299 | 6.4 | 19.3 | 0.00 | 0.00 | 0.00 | 34 | 1011.2 |
| 20260505095534 | 8 | 297 | 9.7 | 20.9 | 0.00 | 0.00 | 0.00 | 31 | 1011.3 |
| 20260505095034 | 8 | 308 | 12.9 | 24.1 | 0.00 | 0.00 | 0.00 | 32 | 1011.3 |
| 20260505094540 | 8 | 334 | 16.1 | 24.1 | 0.00 | 0.00 | 0.00 | 32 | 1011.2 |
| 20260505094034 | 8 | 275 | 4.8 | 19.3 | 0.00 | 0.00 | 0.00 | 35 | 1011.2 |
| 20260505093534 | 8 | 296 | 9.7 | 16.1 | 0.00 | 0.00 | 0.00 | 33 | 1011.3 |
| 20260505093044 | 8 | 300 | 4.8 | 24.1 | 0.00 | 0.00 | 0.00 | 34 | 1011.3 |
| 20260505092534 | 8 | 30 | 12.9 | 24.1 | 0.00 | 0.00 | 0.00 | 31 | 1011.2 |
| 20260505092034 | 8 | 313 | 9.7 | 17.7 | 0.00 | 0.00 | 0.00 | 32 | 1011.3 |
| 20260505091541 | 8 | 319 | 9.7 | 20.9 | 0.00 | 0.00 | 0.00 | 38 | 1011.2 |
| 20260505091036 | 7 | 345 | 6.4 | 20.9 | 0.00 | 0.00 | 0.00 | 36 | 1011.2 |
| 20260505090534 | 7 | 21 | 12.9 | 20.9 | 0.00 | 0.00 | 0.00 | 37 | 1011.3 |
| 20260505090051 | 7 | 336 | 9.7 | 16.1 | 0.00 | 0.00 | 0.00 | 36 | 1011.1 |
| 20260505085535 | 8 | 359 | 6.4 | 14.5 | 0.00 | 0.00 | 0.00 | 39 | 1011.1 |
| 20260505085036 | 7 | 309 | 8.0 | 25.7 | 0.00 | 0.00 | 0.00 | 37 | 1011.1 |
| 20260505084548 | 7 | 354 | 4.8 | 25.7 | 0.00 | 0.00 | 0.00 | 40 | 1011.1 |
| 20260505084033 | 7 | 342 | 14.5 | 22.5 | 0.00 | 0.00 | 0.00 | 38 | 1011.2 |
| 20260505083535 | 6 | 325 | 11.3 | 22.5 | 0.00 | 0.00 | 0.00 | 38 | 1011.2 |
| 20260505083046 | 6 | 323 | 9.7 | 20.9 | 0.00 | 0.00 | 0.00 | 38 | 1011.2 |
| 20260505082535 | 7 | 20 | 4.8 | 17.7 | 0.00 | 0.00 | 0.00 | 38 | 1011.3 |
| 20260505082034 | 6 | 51 | 9.7 | 17.7 | 0.00 | 0.00 | 0.00 | 39 | 1011.2 |
| 20260505081551 | 6 | 283 | 6.4 | 24.1 | 0.00 | 0.00 | 0.00 | 39 | 1011.3 |
| 20260505081034 | 6 | 269 | 6.4 | 24.1 | 0.00 | 0.00 | 0.00 | 40 | 1011.3 |
| 20260505080538 | 6 | 326 | 12.9 | 22.5 | 0.00 | 0.00 | 0.00 | 39 | 1011.3 |
| 20260505080048 | 6 | 297 | 11.3 | 19.3 | 0.00 | 0.00 | 0.00 | 40 | 1011.2 |
| 20260505075535 | 6 | 346 | 9.7 | 19.3 | 0.00 | 0.00 | 0.00 | 39 | 1011.3 |
| 20260505075034 | 6 | 313 | 8.0 | 20.9 | 0.00 | 0.00 | 0.00 | 41 | 1011.2 |
| 20260505074541 | 6 | 295 | 12.9 | 20.9 | 0.00 | 0.00 | 0.00 | 40 | 1011.1 |
| 20260505074034 | 6 | 347 | 12.9 | 20.9 | 0.00 | 0.00 | 0.00 | 40 | 1011.2 |
| 20260505073535 | 6 | 329 | 11.3 | 20.9 | 0.00 | 0.00 | 0.00 | 41 | 1011.2 |
| 20260505073048 | 5 | 340 | 6.4 | 19.3 | 0.00 | 0.00 | 0.00 | 42 | 1011.2 |
| 20260505072534 | 5 | 295 | 8.0 | 19.3 | 0.00 | 0.00 | 0.00 | 43 | 1011.1 |
| 20260505072036 | 5 | 321 | 9.7 | 29.0 | 0.00 | 0.00 | 0.00 | 44 | 1011.0 |
| 20260505071552 | 5 | 290 | 11.3 | 30.6 | 0.00 | 0.00 | 0.00 | 44 | 1011.1 |
| 20260505071034 | 5 | 337 | 14.5 | 30.6 | 0.00 | 0.00 | 0.00 | 44 | 1011.0 |
| 20260505070536 | 5 | 349 | 9.7 | 30.6 | 0.00 | 0.00 | 0.00 | 45 | 1010.9 |
| 20260505070044 | 5 | 293 | 11.3 | 20.9 | 0.00 | 0.00 | 0.00 | 45 | 1010.9 |
| 20260505065534 | 4 | 342 | 14.5 | 20.9 | 0.00 | 0.00 | 0.00 | 45 | 1010.9 |
| 20260505065033 | 4 | 330 | 9.7 | 22.5 | 0.00 | 0.00 | 0.00 | 44 | 1010.8 |
| 20260505064542 | 4 | 323 | 9.7 | 22.5 | 0.00 | 0.00 | 0.00 | 45 | 1010.8 |
| 20260505064036 | 4 | 352 | 9.7 | 25.7 | 0.00 | 0.00 | 0.00 | 45 | 1010.9 |
| 20260505063534 | 4 | 4 | 11.3 | 25.7 | 0.00 | 0.00 | 0.00 | 45 | 1010.8 |
| 20260505063047 | 4 | 314 | 11.3 | 24.1 | 0.00 | 0.00 | 0.00 | 46 | 1011.0 |
| 20260505062534 | 4 | 339 | 8.0 | 20.9 | 0.00 | 0.00 | 0.00 | 46 | 1010.9 |
| 20260505062035 | 4 | 17 | 9.7 | 17.7 | 0.00 | 0.00 | 0.00 | 46 | 1010.8 |
| 20260505061548 | 4 | 342 | 9.7 | 20.9 | 0.00 | 0.00 | 0.00 | 47 | 1010.9 |
| 20260505061034 | 3 | 1 | 11.3 | 20.9 | 0.00 | 0.00 | 0.00 | 49 | 1010.9 |
| 20260505060536 | 3 | 312 | 6.4 | 20.9 | 0.00 | 0.00 | 0.00 | 50 | 1010.9 |
| 20260505060051 | 3 | 302 | 8.0 | 27.4 | 0.00 | 0.00 | 0.00 | 49 | 1010.8 |
| 20260505055538 | 3 | 309 | 12.9 | 27.4 | 0.00 | 0.00 | 0.00 | 48 | 1010.9 |
| 20260505055035 | 3 | 323 | 9.7 | 17.7 | 0.00 | 0.00 | 0.00 | 50 | 1010.9 |
| 20260505054555 | 3 | 328 | 6.4 | 27.4 | 0.00 | 0.00 | 0.00 | 50 | 1011.0 |
| 20260505054035 | 3 | 356 | 14.5 | 27.4 | 0.00 | 0.00 | 0.00 | 50 | 1010.9 |
| 20260505053534 | 3 | 349 | 9.7 | 25.7 | 0.00 | 0.00 | 0.00 | 50 | 1010.8 |
| 20260505053054 | 3 | 53 | 11.3 | 25.7 | 0.00 | 0.00 | 0.00 | 51 | 1010.7 |
| 20260505052534 | 3 | 1 | 11.3 | 22.5 | 0.00 | 0.00 | 0.00 | 52 | 1010.8 |
| 20260505052034 | 3 | 309 | 9.7 | 22.5 | 0.00 | 0.00 | 0.00 | 51 | 1010.7 |
| 20260505051549 | 3 | 329 | 3.2 | 12.9 | 0.00 | 0.00 | 0.00 | 53 | 1010.8 |
| 20260505051034 | 3 | 355 | 1.6 | 17.7 | 0.00 | 0.00 | 0.00 | 52 | 1010.7 |
| 20260505050536 | 2 | 356 | 6.4 | 17.7 | 0.00 | 0.00 | 0.00 | 53 | 1010.6 |
| 20260505041545 | 1 | 0 | 0.0 | 3.2 | 0.00 | 0.00 | 0.00 | 61 | 1010.5 |
| 20260505041034 | 0 | 0 | 0.0 | 3.2 | 0.00 | 0.00 | 0.00 | 62 | 1010.5 |
| 20260505040537 | 0 | 0 | 0.0 | 3.2 | 0.00 | 0.00 | 0.00 | 64 | 1010.5 |
| 20260505040044 | 0 | 0 | 0.0 | 0.0 | 0.00 | 0.00 | 0.00 | 67 | 1010.3 |
| 20260505035535 | 0 | 0 | 0.0 | 1.6 | 0.00 | 0.00 | 0.00 | 64 | 1010.4 |
| 20260505035035 | 0 | 0 | 0.0 | 1.6 | 0.00 | 0.00 | 0.00 | 63 | 1010.3 |
| 20260505034545 | 0 | 0 | 0.0 | 3.2 | 0.00 | 0.00 | 0.00 | 61 | 1010.3 |
| 20260505034034 | 1 | 0 | 0.0 | 3.2 | 0.00 | 0.00 | 0.00 | 61 | 1010.3 |
| 20260505033534 | 1 | 0 | 0.0 | 1.6 | 0.00 | 0.00 | 0.00 | 60 | 1010.2 |
| 20260505033044 | 0 | 101 | 0.0 | 8.0 | 0.00 | 0.00 | 0.00 | 60 | 1010.2 |
| 20260505032534 | 0 | 0 | 1.6 | 8.0 | 0.00 | 0.00 | 0.00 | 61 | 1010.3 |
| 20260505032033 | 0 | 355 | 1.6 | 3.2 | 0.00 | 0.00 | 0.00 | 62 | 1010.3 |
| 20260505031539 | 0 | 357 | 0.0 | 3.2 | 0.00 | 0.00 | 0.00 | 62 | 1010.3 |
| 20260505031033 | 0 | 0 | 0.0 | 3.2 | 0.00 | 0.00 | 0.00 | 63 | 1010.3 |
| 20260505030534 | 0 | 0 | 1.6 | 3.2 | 0.00 | 0.00 | 0.00 | 62 | 1010.2 |
| 20260505030047 | 0 | 0 | 0.0 | 1.6 | 0.00 | 0.00 | 0.00 | 63 | 1010.2 |
| 20260505025536 | 0 | 319 | 0.0 | 1.6 | 0.00 | 0.00 | 0.00 | 62 | 1010.3 |
| 20260505025034 | 0 | 0 | 0.0 | 1.6 | 0.00 | 0.00 | 0.00 | 62 | 1010.1 |
| 20260505024544 | 0 | 0 | 0.0 | 1.6 | 0.00 | 0.00 | 0.00 | 61 | 1010.2 |
| 20260505024034 | 0 | 330 | 0.0 | 1.6 | 0.00 | 0.00 | 0.00 | 61 | 1010.3 |
| 20260505023534 | 1 | 65 | 0.0 | 1.6 | 0.00 | 0.00 | 0.00 | 58 | 1010.2 |
| 20260505023045 | 1 | 0 | 0.0 | 0.0 | 0.00 | 0.00 | 0.00 | 57 | 1010.2 |
| 20260505022534 | 1 | 0 | 0.0 | 1.6 | 0.00 | 0.00 | 0.00 | 56 | 1010.1 |
| 20260505022036 | 1 | 0 | 0.0 | 3.2 | 0.00 | 0.00 | 0.00 | 55 | 1010.0 |
| 20260505021538 | 1 | 347 | 0.0 | 3.2 | 0.00 | 0.00 | 0.00 | 55 | 1010.2 |
| 20260505021033 | 1 | 352 | 0.0 | 3.2 | 0.00 | 0.00 | 0.00 | 55 | 1010.1 |
| 20260505020536 | 1 | 0 | 0.0 | 1.6 | 0.00 | 0.00 | 0.00 | 57 | 1010.1 |
| 20260505020045 | 1 | 0 | 0.0 | 6.4 | 0.00 | 0.00 | 0.00 | 56 | 1010.0 |
| 20260505015534 | 1 | 0 | 0.0 | 6.4 | 0.00 | 0.00 | 0.00 | 56 | 1009.9 |
| 20260505015035 | 1 | 0 | 1.6 | 6.4 | 0.00 | 0.00 | 0.00 | 56 | 1009.9 |
| 20260505014546 | 2 | 0 | 0.0 | 3.2 | 0.00 | 0.00 | 0.00 | 54 | 1009.9 |
| 20260505014034 | 2 | 0 | 0.0 | 3.2 | 0.00 | 0.00 | 0.00 | 54 | 1009.7 |
| 20260505013534 | 2 | 0 | 0.0 | 1.6 | 0.00 | 0.00 | 0.00 | 55 | 1009.7 |
| 20260505013044 | 2 | 65 | 0.0 | 4.8 | 0.00 | 0.00 | 0.00 | 54 | 1009.6 |
| 20260505012534 | 2 | 0 | 0.0 | 4.8 | 0.00 | 0.00 | 0.00 | 53 | 1009.6 |
| 20260505012036 | 2 | 90 | 0.0 | 4.8 | 0.00 | 0.00 | 0.00 | 53 | 1009.5 |
| 20260505011549 | 2 | 23 | 1.6 | 4.8 | 0.00 | 0.00 | 0.00 | 52 | 1009.4 |
| 20260505011034 | 2 | 83 | 0.0 | 4.8 | 0.00 | 0.00 | 0.00 | 52 | 1009.4 |
| 20260505010534 | 2 | 351 | 1.6 | 4.8 | 0.00 | 0.00 | 0.00 | 52 | 1009.4 |
| 20260505010042 | 2 | 86 | 0.0 | 4.8 | 0.00 | 0.00 | 0.00 | 53 | 1009.3 |
| 20260505005534 | 2 | 346 | 0.0 | 4.8 | 0.00 | 0.00 | 0.00 | 54 | 1009.4 |
| 20260505005034 | 2 | 336 | 0.0 | 8.0 | 0.00 | 0.00 | 0.00 | 53 | 1009.4 |
| 20260505004548 | 3 | 343 | 1.6 | 8.0 | 0.00 | 0.00 | 0.00 | 52 | 1009.4 |
| 20260505004035 | 3 | 89 | 0.0 | 11.3 | 0.00 | 0.00 | 0.00 | 52 | 1009.2 |
| 20260505003537 | 3 | 0 | 0.0 | 11.3 | 0.00 | 0.00 | 0.00 | 52 | 1009.3 |
| 20260505003047 | 3 | 0 | 1.6 | 11.3 | 0.00 | 0.00 | 0.00 | 51 | 1009.1 |
| 20260505002533 | 3 | 0 | 1.6 | 11.3 | 0.00 | 0.00 | 0.00 | 53 | 1009.2 |
| 20260505002033 | 3 | 101 | 1.6 | 11.3 | 0.00 | 0.00 | 0.00 | 52 | 1009.1 |
| 20260505001546 | 3 | 333 | 3.2 | 11.3 | 0.00 | 0.00 | 0.00 | 52 | 1009.1 |
| 20260505001033 | 3 | 30 | 1.6 | 6.4 | 0.00 | 0.00 | 0.00 | 53 | 1009.0 |
| 20260505000535 | 3 | 0 | 0.0 | 6.4 | 0.00 | 0.00 | 0.00 | 53 | 1009.0 |
| 20260505000047 | 3 | 0 | 0.0 | 9.7 | 0.00 | 0.00 | 0.00 | 53 | 1008.8 |
| 20260504235533 | 3 | 148 | 0.0 | 9.7 | 0.00 | 0.00 | 0.00 | 52 | 1008.8 |
| 20260504235034 | 3 | 5 | 1.6 | 8.0 | 0.00 | 0.00 | 0.00 | 52 | 1008.8 |
| 20260504234542 | 3 | 0 | 0.0 | 6.4 | 0.00 | 0.00 | 0.00 | 52 | 1008.7 |
| 20260504234036 | 3 | 136 | 0.0 | 6.4 | 0.00 | 0.00 | 0.00 | 51 | 1008.8 |
| 20260504233537 | 3 | 0 | 0.0 | 1.6 | 0.00 | 0.00 | 0.00 | 51 | 1008.7 |
| 20260504233050 | 3 | 0 | 0.0 | 6.4 | 0.00 | 0.00 | 0.00 | 51 | 1008.7 |
| 20260504232533 | 4 | 0 | 0.0 | 19.3 | 0.00 | 0.00 | 0.00 | 50 | 1008.6 |
| 20260504232033 | 5 | 0 | 3.2 | 22.5 | 0.00 | 0.00 | 0.00 | 48 | 1008.6 |
| 20260504231547 | 5 | 346 | 11.3 | 22.5 | 0.00 | 0.00 | 0.00 | 48 | 1008.4 |
| 20260504231033 | 5 | 349 | 9.7 | 20.9 | 0.00 | 0.00 | 0.00 | 49 | 1008.5 |